FW0019 Weather Reports


time (UTC)temp
C
wind
direction
speed
KPH
gust
KPH
rain 1hr
cm
rain 24hr
cm
rain mn
cm
humidity
%
barometer
mb
20260905044550 16 113 9.7 16.1 0.00 0.00 0.00 42 878.6
20260905043056 15 74 8.0 14.5 0.00 0.00 0.00 42 878.5
20260905041549 15 90 9.7 14.5 0.00 0.00 0.00 43 878.6
20260905040048 15 121 6.4 12.9 0.00 0.00 0.00 42 878.5
20260905034600 15 110 6.4 14.5 0.00 0.00 0.00 48 878.4
20260905033110 15 109 6.4 12.9 0.00 0.00 0.00 50 878.3
20260905031559 15 84 8.0 16.1 0.00 0.00 0.00 51 878.1
20260905030056 15 106 12.9 20.9 0.00 0.00 0.00 51 878.0
20260905024546 15 96 8.0 14.5 0.00 0.00 0.00 51 877.9
20260905023054 16 105 4.8 11.3 0.00 0.00 0.00 50 877.9
20260905021546 17 113 6.4 16.1 0.00 0.00 0.00 47 877.9
20260905020043 17 81 11.3 20.9 0.00 0.00 0.00 47 877.9
20260905014541 18 107 9.7 22.5 0.00 0.00 0.00 45 878.0
20260905013043 19 100 11.3 20.9 0.00 0.00 0.00 44 877.9
20260905011541 20 151 11.3 25.7 0.00 0.00 0.00 43 878.0
20260905010043 20 120 9.7 22.5 0.00 0.00 0.00 44 877.9
20260905004540 21 109 9.7 27.4 0.00 0.00 0.00 44 877.9
20260905003039 21 102 16.1 29.0 0.00 0.00 0.00 45 878.0
20260905001541 21 109 16.1 30.6 0.00 0.00 0.00 45 877.9
20260905000038 21 117 16.1 30.6 0.00 0.00 0.00 45 878.0
20260904234536 22 108 17.7 27.4 0.00 0.00 0.00 43 877.9
20260904233041 22 136 20.9 33.8 0.00 0.00 0.00 43 878.1
20260904231538 23 144 16.1 29.0 0.00 0.00 0.00 41 878.0
20260904230100 23 106 12.9 29.0 0.00 0.00 0.00 39 878.2
20260904224534 24 122 12.9 25.7 0.00 0.00 0.00 37 878.3
20260904223031 23 116 9.7 30.6 0.00 0.00 0.00 35 878.4
20260904221530 24 109 14.5 24.1 0.00 0.00 0.00 34 878.4
20260904220029 23 117 12.9 24.1 0.00 0.00 0.00 33 878.6
20260904214528 24 123 12.9 27.4 0.00 0.00 0.00 31 878.7
20260904213031 24 154 19.3 30.6 0.00 0.00 0.00 32 878.7
20260904211528 24 98 12.9 35.4 0.00 0.00 0.00 31 878.6
20260904210026 24 86 9.7 33.8 0.00 0.00 0.00 28 878.7
20260904204531 24 157 16.1 29.0 0.00 0.00 0.00 28 878.6
20260904203023 24 165 16.1 27.4 0.00 0.00 0.00 29 878.8
20260904201521 23 140 9.7 25.7 0.00 0.00 0.00 30 878.7
20260904200024 23 118 12.9 25.7 0.00 0.00 0.00 26 878.7
20260904194520 23 140 19.3 30.6 0.00 0.00 0.00 24 878.7
20260904193017 23 141 11.3 29.0 0.00 0.00 0.00 25 878.9
20260904191524 23 101 16.1 25.7 0.00 0.00 0.00 25 878.8
20260904190016 23 142 12.9 29.0 0.00 0.00 0.00 25 879.1
20260904184515 23 161 9.7 22.5 0.00 0.00 0.00 24 879.0
20260904183011 23 114 11.3 19.3 0.00 0.00 0.00 25 879.2
20260904181510 22 111 12.9 29.0 0.00 0.00 0.00 24 879.2
20260904180008 22 144 14.5 20.9 0.00 0.00 0.00 21 879.2
20260904174506 22 172 11.3 20.9 0.00 0.00 0.00 20 879.1
20260904173005 21 173 9.7 20.9 0.00 0.00 0.00 18 879.0
20260904171614 21 142 9.7 22.5 0.00 0.00 0.00 19 879.0
20260904170058 21 82 8.0 25.7 0.00 0.00 0.00 18 878.9
20260904164611 21 176 11.3 24.1 0.00 0.00 0.00 21 878.6
20260904163052 20 142 11.3 24.1 0.00 0.00 0.00 23 878.4
20260904161551 20 130 11.3 22.5 0.00 0.00 0.00 20 878.4
20260904160048 19 164 12.9 22.5 0.00 0.00 0.00 23 878.1
20260904154543 18 169 9.7 22.5 0.00 0.00 0.00 20 878.0
20260904153059 18 119 12.9 24.1 0.00 0.00 0.00 15 877.9
20260904151544 17 123 12.9 20.9 0.00 0.00 0.00 14 877.7
20260904150041 17 130 11.3 20.9 0.00 0.00 0.00 14 877.6
20260904144530 17 103 11.3 22.5 0.00 0.00 0.00 14 877.5
20260904143026 16 98 12.9 20.9 0.00 0.00 0.00 15 877.4
20260904141522 15 95 12.9 20.9 0.00 0.00 0.00 15 877.2
20260904140031 15 140 11.3 17.7 0.00 0.00 0.00 15 877.0
20260904134519 13 114 8.0 17.7 0.00 0.00 0.00 15 877.1
20260904133019 13 46 4.8 16.1 0.00 0.00 0.00 16 877.0
20260904131536 13 103 8.0 20.9 0.00 0.00 0.00 17 876.7
20260904130016 13 110 9.7 19.3 0.00 0.00 0.00 18 876.6
20260904124516 13 98 11.3 24.1 0.00 0.00 0.00 20 876.5
20260904123014 13 111 11.3 20.9 0.00 0.00 0.00 20 876.4
20260904121513 13 80 8.0 19.3 0.00 0.00 0.00 22 876.5
20260904120019 13 117 8.0 22.5 0.00 0.00 0.00 22 876.5
20260904114511 13 65 11.3 20.9 0.00 0.00 0.00 23 876.5
20260904113030 13 92 6.4 17.7 0.00 0.00 0.00 26 876.5
20260904111509 13 85 8.0 17.7 0.00 0.00 0.00 28 876.7
20260904110008 13 109 4.8 12.9 0.00 0.00 0.00 32 876.6
20260904104507 13 76 4.8 14.5 0.00 0.00 0.00 38 876.5
20260904103004 13 69 3.2 16.1 0.00 0.00 0.00 39 876.5
20260904101502 13 111 6.4 14.5 0.00 0.00 0.00 39 876.5
20260904100110 14 68 4.8 14.5 0.00 0.00 0.00 39 876.5
20260904094609 14 95 8.0 14.5 0.00 0.00 0.00 40 876.5
20260904093103 14 107 6.4 14.5 0.00 0.00 0.00 39 876.4
20260904091611 14 102 6.4 16.1 0.00 0.00 0.00 36 876.6
20260904090057 14 130 6.4 12.9 0.00 0.00 0.00 36 876.6
20260904084553 15 60 1.6 8.0 0.00 0.00 0.00 36 876.8
20260904083050 15 66 1.6 8.0 0.00 0.00 0.00 34 877.0
20260904081550 15 63 1.6 9.7 0.00 0.00 0.00 35 877.0
20260904080046 15 96 3.2 12.9 0.00 0.00 0.00 32 877.2
20260904074548 14 78 3.2 11.3 0.00 0.00 0.00 28 877.3
20260904073048 14 78 3.2 8.0 0.00 0.00 0.00 28 877.3
20260904071540 14 85 4.8 8.0 0.00 0.00 0.00 30 877.3
20260904070037 15 103 3.2 8.0 0.00 0.00 0.00 31 877.3
20260904064533 15 75 3.2 12.9 0.00 0.00 0.00 36 877.3
20260904063028 15 107 0.0 12.9 0.00 0.00 0.00 39 877.2
20260904061523 15 136 0.0 0.0 0.00 0.00 0.00 40 877.3
20260904060020 15 83 1.6 8.0 0.00 0.00 0.00 39 877.3
20260904054533 16 105 6.4 12.9 0.00 0.00 0.00 38 877.4
20260904053015 15 13 0.0 6.4 0.00 0.00 0.00 40 877.3
20260904051512 14 98 0.0 3.2 0.00 0.00 0.00 43 877.5
20260904050003 14 98 0.0 4.8 0.00 0.00 0.00 44 877.5